TimePST,TemperatureF,Dew PointF,Humidity,Sea Level PressureIn,VisibilityMPH,Wind Direction,Wind SpeedMPH,Gust SpeedMPH,PrecipitationIn,Events,Conditions,WindDirDegrees,DateUTC
12:56 AM,37.0,30.9,79,29.94,10.0,SSW,5.8,-,N/A,,Overcast,200,2013-02-20 08:56:00
1:56 AM,37.0,32.0,82,29.94,10.0,Calm,Calm,-,N/A,,Overcast,0,2013-02-20 09:56:00
2:56 AM,35.6,32.0,87,29.92,10.0,Calm,Calm,-,N/A,,Overcast,0,2013-02-20 10:56:00
3:56 AM,36.0,30.0,79,29.96,10.0,Calm,Calm,-,N/A,,Overcast,0,2013-02-20 11:56:00
4:56 AM,36.0,28.9,76,29.96,10.0,SSW,4.6,-,N/A,,Mostly Cloudy,200,2013-02-20 12:56:00
5:39 AM,35.6,30.2,81,29.94,10.0,South,4.6,-,N/A,,Overcast,190,2013-02-20 13:39:00
5:56 AM,36.0,30.9,82,29.97,10.0,South,5.8,-,N/A,,Overcast,180,2013-02-20 13:56:00
6:26 AM,35.6,30.2,81,29.95,10.0,South,4.6,-,N/A,,Overcast,190,2013-02-20 14:26:00
6:56 AM,35.1,32.0,89,29.99,10.0,South,4.6,-,N/A,,Overcast,190,2013-02-20 14:56:00
7:30 AM,35.6,32.0,87,29.97,10.0,SSW,4.6,-,N/A,,Overcast,200,2013-02-20 15:30:00
7:56 AM,36.0,32.0,86,30.01,10.0,SW,3.5,-,N/A,,Overcast,220,2013-02-20 15:56:00
8:34 AM,37.4,32.0,81,29.98,10.0,Calm,Calm,-,N/A,,Overcast,0,2013-02-20 16:34:00
8:56 AM,37.9,33.1,83,30.01,10.0,Calm,Calm,-,N/A,,Overcast,0,2013-02-20 16:56:00
9:56 AM,39.9,32.0,73,30.01,10.0,Calm,Calm,-,N/A,,Clear,0,2013-02-20 17:56:00
10:05 AM,41.0,30.2,65,29.98,10.0,Calm,Calm,-,N/A,,Scattered Clouds,0,2013-02-20 18:05:00
10:56 AM,41.0,28.0,60,30.01,10.0,Calm,Calm,-,N/A,,Clear,0,2013-02-20 18:56:00
11:56 AM,45.0,28.0,52,30.00,10.0,NW,9.2,-,N/A,,Clear,320,2013-02-20 19:56:00
12:56 PM,46.9,25.0,42,29.98,10.0,WNW,11.5,-,N/A,,Clear,300,2013-02-20 20:56:00
1:56 PM,46.9,25.0,42,29.97,10.0,NW,5.8,-,N/A,,Partly Cloudy,310,2013-02-20 21:56:00
2:56 PM,46.9,26.1,44,29.96,10.0,NW,8.1,-,N/A,,Partly Cloudy,320,2013-02-20 22:56:00
3:56 PM,46.0,27.0,47,29.96,10.0,NNW,8.1,-,N/A,,Clear,330,2013-02-20 23:56:00
4:56 PM,43.0,26.1,51,29.98,10.0,North,4.6,-,N/A,,Clear,360,2013-02-21 00:56:00
5:56 PM,42.1,26.1,53,29.99,10.0,Calm,Calm,-,N/A,,Mostly Cloudy,0,2013-02-21 01:56:00
6:56 PM,37.9,26.1,62,30.01,10.0,SSE,5.8,-,N/A,,Partly Cloudy,160,2013-02-21 02:56:00
7:56 PM,35.1,25.0,67,30.02,10.0,SE,4.6,-,N/A,,Mostly Cloudy,140,2013-02-21 03:56:00
8:56 PM,35.1,26.1,70,30.03,10.0,Calm,Calm,-,N/A,,Overcast,0,2013-02-21 04:56:00
9:56 PM,35.1,26.1,70,30.03,10.0,SSE,3.5,-,N/A,,Mostly Cloudy,150,2013-02-21 05:56:00
10:56 PM,34.0,26.1,73,30.02,10.0,Calm,Calm,-,N/A,,Overcast,0,2013-02-21 06:56:00
11:56 PM,35.1,26.1,70,30.03,9.0,Calm,Calm,-,N/A,,Overcast,0,2013-02-21 07:56:00